一网星座-0530星 (ONEWEB-0530)

导读 | 星芒AI

ONEWE-0530 是 OneWeb 卫星通信星座计划中的一颗低轨通信卫星,旨在为全球提供高速互联网服务。该卫星由空中客车防务与航天公司制造,采用标准化设计,以降低发射和运营成本。它运行在约 1200 公里的近地轨道,支持极地覆盖,特别服务于航空、航海及偏远地区用户。ONEWE-0530 是 OneWeb 扩展其卫星网络、实现全球宽带接入目标的重要组成部分。

基本信息
目录编号:
55796
目录名称:
ONEWEB-0530
国际标识:
2023-029A
轨道中心:
EARTH
卫星名称:
一网星座-0530星
卫星全名:
一网星座-0530星 (ONEWEB-0530)
卫星状态:
在轨 (已飞行966 天)
发射日期:
2023-03-09 UTC
国别 :
英国 (GB)
星等 :
--
轨道信息
数据来源 国际轨道数据 AOE轨道数据
星历时间 2025-10-29T19:40:59+0800
20小时前
查看轨道信息
2025-10-29T03:00:00+0800
1天前
查看轨道信息
半长轴 7559.915km 7559.92km
偏心率 0.0001489 0.0001537
轨道倾角 87.919° 87.920°
近地点辐角 79.704° 76.026°
升交点赤经 320.496° 320.634°
平近点角 280.426° 220.838°
近地点 1180.654km 1180.623km
远地点 1182.906km 1182.947km
周期 109.027分钟 109.027分钟
每日圈数 13.207708 13.207695
详细信息
平衡模式:
三轴稳定
覆盖范围:
全球
运营商:
一网卫星公司
运营商所在国:
英国
制造商(研发单位):
一网卫星公司
制造商所在国:
英国
使用方式:
暂无
卫星简介
OneWeb卫星网络由648颗重约125公斤的微型卫星组成,运行在1200公里的轨道上。 每颗卫星都能够提供至少每秒8千兆位的吞吐量,以使用其高吞吐量的Ku频段有效载荷为家庭和移动平台提供互联网接入。该卫星仍在工作。
2D轨道图
3D轨道图
轨道高度分析图
轨道倾角分析图
轨道综合分析图
查看轨道综合分析图